Weather History for Marshfield, MA

Change the Weather History Date:

Tuesday, March 12, 2013

  Actual Average (KPYM) Record (KPYM)
Temperature  
Mean Temperature 50 °F -  
Max Temperature 57 °F 46 °F 70 °F (2012)
Min Temperature 42 °F 24 °F 9 °F (1984)
Degree Days  
Heating Degree Days 16    
Moisture  
Dew Point 48 °F    
Average Humidity 91    
Maximum Humidity 100    
Minimum Humidity 77    
Precipitation  
Precipitation 0.57 in - - ()
Sea Level Pressure  
Sea Level Pressure 29.99 in    
Wind  
Wind Speed 7 mph (SE)    
Max Wind Speed 18 mph    
Max Gust Speed 32 mph    
Visibility 8 miles    
Events Rain    
Averages and records for this station are not official NWS values.
T = Trace of Precipitation, MM = Missing Value Source: NWS Daily Summary

Daily Weather History Graph

Daily Weather History Graph

Search for Another Location

Airport:

Trip Planner

Search our weather history database for the weather conditions in past years. The results will help you decide how hot, cold, wet, or windy it might be!

Date:

Astronomy

Mar. 12, 2013 Rise Set
Actual Time 6:59 AM EDT 6:46 PM EDT
Civil Twilight 6:31 AM EDT 7:13 PM EDT
Nautical Twilight 5:59 AM EDT 7:46 PM EDT
Astronomical Twilight 5:26 AM EDT 8:19 PM EDT
Moon 7:02 AM EDT (3/12) 8:00 PM EDT (3/12)
Length of Visible Light 12h 42m
Length of Day
11h 46m
New Moon, 1% of the Moon is Illuminated
Mar 12
New Moon
Mar 19
First Quarter
Mar 27
Full
Apr 3
Last Quarter
Apr 10
New

Hourly Weather History & Observations

Time (EDT) Temp. Windchill Dew Point Humidity Pressure Visibility Wind Dir Wind Speed Gust Speed Precip Events Conditions
12:15 AM 44.6 °F 40.7 °F 42.8 °F 93% 30.19 in 10.0 mi South 6.9 mph - N/A   Mostly Cloudy
12:35 AM 44.6 °F 42.2 °F 42.8 °F 93% 30.19 in 10.0 mi South 4.6 mph - N/A   Mostly Cloudy
12:55 AM 44.6 °F 42.2 °F 42.8 °F 93% 30.18 in 10.0 mi SSE 4.6 mph - N/A   Scattered Clouds
1:15 AM 44.6 °F 43.1 °F 42.8 °F 93% 30.19 in 10.0 mi South 3.5 mph - N/A   Partly Cloudy
1:35 AM 44.6 °F 43.1 °F 42.8 °F 93% 30.19 in 10.0 mi South 3.5 mph - N/A   Partly Cloudy
1:55 AM 44.6 °F 42.2 °F 42.8 °F 93% 30.19 in 10.0 mi SE 4.6 mph - N/A   Clear
2:15 AM 44.6 °F 42.2 °F 42.8 °F 93% 30.17 in 10.0 mi SE 4.6 mph - N/A   Clear
2:35 AM 44.6 °F 42.2 °F 42.8 °F 93% 30.16 in 10.0 mi SE 4.6 mph - N/A   Clear
2:55 AM 44.6 °F 42.2 °F 42.8 °F 93% 30.15 in 10.0 mi SE 4.6 mph - N/A   Clear
3:15 AM 44.6 °F 43.1 °F 42.8 °F 93% 30.15 in 10.0 mi SSE 3.5 mph - N/A   Clear
3:35 AM 44.6 °F 43.1 °F 42.8 °F 93% 30.14 in 10.0 mi ESE 3.5 mph - N/A   Clear
3:55 AM 42.8 °F 40.1 °F 41.0 °F 93% 30.12 in 10.0 mi ESE 4.6 mph - N/A   Clear
4:15 AM 42.8 °F 41.1 °F 41.0 °F 93% 30.11 in 9.0 mi ESE 3.5 mph - N/A   Clear
4:35 AM 42.8 °F 40.1 °F 42.8 °F 100% 30.11 in 9.0 mi ESE 4.6 mph - N/A   Clear
4:55 AM 44.6 °F 42.2 °F 42.8 °F 93% 30.10 in 10.0 mi ESE 4.6 mph - N/A   Clear
5:15 AM 44.6 °F 42.2 °F 42.8 °F 93% 30.10 in 10.0 mi ESE 4.6 mph - N/A   Clear
5:35 AM 44.6 °F 42.2 °F 42.8 °F 93% 30.11 in 9.0 mi ESE 4.6 mph - N/A   Clear
5:55 AM 44.6 °F 42.2 °F 44.6 °F 100% 30.10 in 10.0 mi ESE 4.6 mph - N/A   Clear
6:15 AM 46.4 °F 44.3 °F 44.6 °F 93% 30.10 in 10.0 mi SSE 4.6 mph - N/A   Clear
6:35 AM 46.4 °F 45.2 °F 46.4 °F 100% 30.09 in 10.0 mi SE 3.5 mph - N/A   Clear
6:55 AM 48.2 °F - 46.4 °F 93% 30.10 in 10.0 mi SE 3.5 mph - N/A   Clear
7:15 AM 48.2 °F - 46.4 °F 93% 30.09 in 10.0 mi SE 3.5 mph - N/A   Clear
7:35 AM 48.2 °F - 46.4 °F 93% 30.10 in 10.0 mi SE 5.8 mph - N/A   Clear
7:55 AM 48.2 °F - 46.4 °F 93% 30.09 in 10.0 mi SE 6.9 mph - N/A   Clear
8:15 AM 48.2 °F - 46.4 °F 93% 30.09 in 7.0 mi SE 6.9 mph - N/A   Clear
8:35 AM 50.0 °F - 46.4 °F 87% 30.08 in 10.0 mi SE 8.1 mph - N/A   Clear
8:55 AM 50.0 °F - 46.4 °F 87% 30.08 in 10.0 mi SE 9.2 mph - N/A   Scattered Clouds
9:15 AM 51.8 °F - 48.2 °F 88% 30.08 in 10.0 mi SE 9.2 mph - N/A   Mostly Cloudy
9:35 AM 51.8 °F - 48.2 °F 88% 30.09 in 10.0 mi SSE 8.1 mph 16.1 mph N/A   Overcast
9:55 AM 51.8 °F - 48.2 °F 88% 30.09 in 10.0 mi SSE 10.4 mph - N/A   Overcast
10:15 AM 51.8 °F - 48.2 °F 88% 30.08 in 10.0 mi SE 8.1 mph - N/A   Overcast
10:35 AM 51.8 °F - 48.2 °F 88% 30.07 in 10.0 mi SE 6.9 mph - N/A   Overcast
10:55 AM 51.8 °F - 48.2 °F 88% 30.06 in 10.0 mi ESE 8.1 mph - N/A   Mostly Cloudy
11:15 AM 51.8 °F - 46.4 °F 82% 30.05 in 10.0 mi SE 6.9 mph - N/A   Clear
11:35 AM 51.8 °F - 48.2 °F 88% 30.04 in 10.0 mi SE 6.9 mph - N/A   Partly Cloudy
11:55 AM 53.6 °F - 50.0 °F 88% 30.03 in 10.0 mi SSE 9.2 mph - N/A   Partly Cloudy
12:15 PM 55.4 °F - 50.0 °F 82% 30.02 in 10.0 mi SSE 10.4 mph 18.4 mph N/A   Scattered Clouds
12:35 PM 55.4 °F - 50.0 °F 82% 30.02 in 10.0 mi SE 11.5 mph - N/A   Partly Cloudy
12:55 PM 55.4 °F - 50.0 °F 82% 30.00 in 10.0 mi SSE 13.8 mph 18.4 mph N/A   Partly Cloudy
1:15 PM 55.4 °F - 50.0 °F 82% 29.99 in 10.0 mi SSE 10.4 mph 16.1 mph N/A   Partly Cloudy
1:35 PM 55.4 °F - 50.0 °F 82% 29.99 in 10.0 mi SE 10.4 mph 18.4 mph N/A   Partly Cloudy
1:55 PM 55.4 °F - 50.0 °F 82% 29.98 in 10.0 mi SSE 9.2 mph - N/A   Scattered Clouds
2:15 PM 57.2 °F - 50.0 °F 77% 29.97 in 10.0 mi SSE 10.4 mph 21.9 mph N/A   Scattered Clouds
2:35 PM 55.4 °F - 50.0 °F 82% 29.96 in 10.0 mi SSE 15.0 mph 23.0 mph N/A   Partly Cloudy
2:55 PM 55.4 °F - 48.2 °F 77% 29.96 in 10.0 mi SSE 12.7 mph 20.7 mph N/A   Scattered Clouds
3:15 PM 55.4 °F - 48.2 °F 77% 29.94 in 10.0 mi SSE 11.5 mph 18.4 mph N/A   Partly Cloudy
3:35 PM 55.4 °F - 50.0 °F 82% 29.94 in 10.0 mi SSE 13.8 mph 20.7 mph N/A   Partly Cloudy
3:55 PM 55.4 °F - 50.0 °F 82% 29.93 in 10.0 mi SE 12.7 mph 19.6 mph N/A   Partly Cloudy
4:15 PM 55.4 °F - 50.0 °F 82% 29.92 in 10.0 mi SE 11.5 mph 18.4 mph N/A   Partly Cloudy
4:35 PM 53.6 °F - 50.0 °F 88% 29.91 in 7.0 mi SE 9.2 mph 16.1 mph N/A   Mostly Cloudy
4:55 PM 53.6 °F - 51.8 °F 94% 29.90 in 4.0 mi SSE 10.4 mph 18.4 mph N/A   Mostly Cloudy
5:15 PM 53.6 °F - 51.8 °F 94% 29.90 in 5.0 mi SSE 10.4 mph 21.9 mph N/A Rain Light Rain
5:35 PM 53.6 °F - 51.8 °F 94% 29.89 in 4.0 mi SE 10.4 mph 19.6 mph 0.01 in Rain Light Rain
5:55 PM 53.6 °F - 51.8 °F 94% 29.88 in 4.0 mi SE 10.4 mph 20.7 mph 0.02 in Rain Light Rain
6:15 PM 53.6 °F - 51.8 °F 94% 29.86 in 3.0 mi SSE 11.5 mph 17.3 mph 0.01 in Rain Light Rain
6:35 PM 53.6 °F - 51.8 °F 94% 29.84 in 4.0 mi SE 13.8 mph 20.7 mph 0.01 in Rain Light Rain
6:55 PM 53.6 °F - 51.8 °F 94% 29.84 in 5.0 mi SSE 9.2 mph 16.1 mph 0.02 in Rain Light Rain
7:15 PM 53.6 °F - 51.8 °F 94% 29.83 in 3.0 mi SSE 11.5 mph 18.4 mph 0.01 in Rain Light Rain
7:35 PM 53.6 °F - 51.8 °F 94% 29.83 in 3.0 mi SE 12.7 mph 21.9 mph 0.03 in Rain Light Rain
7:55 PM 55.4 °F - 53.6 °F 94% 29.82 in 2.5 mi SSE 9.2 mph 21.9 mph 0.06 in Rain Rain
8:15 PM 55.4 °F - 53.6 °F 94% 29.81 in 2.0 mi SSE 12.7 mph 19.6 mph 0.04 in Rain Rain
8:35 PM 53.6 °F - 53.6 °F 100% 29.79 in 1.8 mi SE 13.8 mph 19.6 mph 0.12 in Rain Heavy Rain
8:55 PM 55.4 °F - 53.6 °F 94% 29.79 in 1.5 mi SSE 15.0 mph 23.0 mph 0.21 in Rain Rain
9:15 PM 55.4 °F - 53.6 °F 94% 29.78 in 1.0 mi SSE 18.4 mph 32.2 mph 0.07 in   Overcast
9:35 PM 55.4 °F - 53.6 °F 94% 29.77 in 1.2 mi SSE 12.7 mph 24.2 mph 0.11 in   Light Drizzle
9:55 PM 55.4 °F - 53.6 °F 94% 29.78 in 1.2 mi South 9.2 mph 19.6 mph 0.13 in   Overcast
10:15 PM 55.4 °F - 53.6 °F 94% 29.78 in 2.0 mi South 13.8 mph 25.3 mph 0.02 in   Overcast
10:35 PM 55.4 °F - 53.6 °F 94% 29.77 in 2.5 mi South 16.1 mph 25.3 mph 0.05 in Rain Light Rain
10:55 PM 55.4 °F - 53.6 °F 94% 29.77 in 2.5 mi South 13.8 mph 23.0 mph 0.08 in Rain Heavy Rain
11:15 PM 55.4 °F - 53.6 °F 94% 29.77 in 4.0 mi South 12.7 mph 21.9 mph 0.04 in Rain Rain
11:35 PM 55.4 °F - 53.6 °F 94% 29.76 in 10.0 mi South 8.1 mph 16.1 mph 0.05 in   Mostly Cloudy
11:55 PM 55.4 °F - 53.6 °F 94% 29.76 in 5.0 mi South 5.8 mph - 0.05 in Rain Light Rain